Current Weather Conditions: station ENFB

sailwx.info

See reports from other nearby stations

no recent reports received from weather station ID ENFB

Tides Pressure Air temp Water temp Dewpoint Dewpoint depression Visibility Wind speed Wind direction Waves Ship positions
date/time (UTC)wind fromknots sea level pressurealtimeterstation pressurevisibilityair tempwater tempwave heightnotes
2017-Apr-27 05:50 360 18 5.4 5.0
2017-Apr-27 05:20 360 15 5.4 6.0
2017-Apr-27 04:50 360 15 5.4 5.0
2017-Apr-27 04:20 360 17 5.4 5.0
2017-Apr-27 03:50 350 18 5.4 5.0
2017-Apr-27 03:20 340 20 5.4 5.0
2017-Apr-27 02:50 350 20 5.4 6.0
2017-Apr-27 02:20 010 19 5.4 5.0
2017-Apr-27 01:50 360 19 5.4 5.0 Light rain showers.
2017-Apr-27 01:20 350 14 5.4 5.0
2017-Apr-27 00:50 350 17 5.4 6.0
2017-Apr-27 00:20 350 20 5.4 6.0
2017-Apr-26 23:50 340 20 5.4 6.0
2017-Apr-26 23:20 330 20 4.9 6.0 Light drizzle.
2017-Apr-26 22:50 5.4 6.0
2017-Apr-26 22:20 330 20 5.4 6.0 Light rain showers.
2017-Apr-26 21:50 320 20 5.4 6.0 Light rain showers.
2017-Apr-26 21:20 310 21 5.4 6.0 Light rain showers.
2017-Apr-26 20:50 310 21 5.4 6.0 Light rain.
2017-Apr-26 20:20 290 25 5.4 6.0 Light rain.
2017-Apr-26 19:50 270 24 5.4 6.0 Light rain.
2017-Apr-26 19:20 280 22 4.3 6.0 Light rain.
2017-Apr-26 18:50 280 22 5.4 6.0 Light rain.
2017-Apr-26 18:20 280 20 5.4 6.0 Light rain.
2017-Apr-26 17:50 280 20 4.9 5.0 Light rain.
2017-Apr-26 17:20 260 28 3.2 5.0 Light rain.
2017-Apr-26 16:50 250 29 3.2 4.0 Light rain.
2017-Apr-26 16:20 230 27 5.4 4.0 Light rain.
2017-Apr-26 15:50 240 25 4.9 4.0 Light rain showers.
2017-Apr-26 15:20 240 20 5.4 4.0 Light rain showers.
2017-Apr-26 14:50 260 21 5.4 4.0 Light rain showers.
2017-Apr-26 14:20 260 19 5.4 4.0
2017-Apr-26 13:50 270 17 5.4 4.0 Light rain showers.
2017-Apr-26 13:20 290 13 5.4 4.0 Light rain.
2017-Apr-26 12:50 300 7 5.4 5.0
2017-Apr-26 12:20 320 8 5.4 4.0
2017-Apr-26 11:50 310 13 5.4 7.0
2017-Apr-26 11:20 320 13 5.4 6.0
2017-Apr-26 10:50 330 14 5.4 5.0
2017-Apr-26 10:20 330 15 5.4 5.0
2017-Apr-26 09:50 320 18 5.4 5.0
2017-Apr-26 09:20 350 13 5.4 5.0
2017-Apr-26 08:50 340 14 5.4 5.0
2017-Apr-26 08:20 350 20 5.4 4.0
2017-Apr-26 07:50 350 18 5.4 4.0
2017-Apr-26 07:20 350 18 5.4 4.0
2017-Apr-26 06:50 360 17 5.4 4.0
2017-Apr-26 06:20 360 19 5.4 3.0
2017-Apr-26 05:50 350 17 5.4 3.0 Light rain showers.
2017-Apr-26 05:20 350 20 5.4 3.0 Light rain showers.
2017-Apr-26 04:50 360 19 5.4 4.0
2017-Apr-26 04:20 350 22 5.4 4.0
2017-Apr-26 03:50 340 20 5.4 3.0
2017-Apr-26 03:20 340 21 5.4 4.0
2017-Apr-26 02:50 340 22 5.4 4.0
2017-Apr-26 02:20 330 26 5.4 4.0
2017-Apr-26 01:50 350 24 5.4 4.0
2017-Apr-26 01:20 350 27 5.4 4.0
2017-Apr-26 00:50 350 28 5.4 4.0
2017-Apr-26 00:20 010 24 5.4 3.0 Light rain showers.
2017-Apr-25 23:50 360 28 5.4 4.0
2017-Apr-25 23:20 360 33 5.4 4.0
2017-Apr-25 22:50 360 33 5.4 4.0 Light rain showers.
2017-Apr-25 22:20 360 32 5.4 3.0
2017-Apr-25 21:50 360 34 5.4 3.0
2017-Apr-25 21:20 360 34 5.4 3.0
2017-Apr-25 20:50 010 27 5.4 3.0
2017-Apr-25 20:20 020 27 5.4 3.0 Light rain showers.
2017-Apr-25 19:50 360 35 5.4 3.0
2017-Apr-25 19:20 360 39 5.4 3.0
2017-Apr-25 18:50 360 35 5.4 4.0
2017-Apr-25 18:20 360 31 5.4 4.0 Light rain showers.
2017-Apr-25 17:50 360 35 5.4 5.0
2017-Apr-25 17:20 360 34 1.9 5.0 Light rain showers.
2017-Apr-25 16:50 020 27 5.4 4.0
2017-Apr-25 16:20 030 31 5.4 4.0 Light rain showers.
2017-Apr-25 15:50 360 34 5.4 5.0
2017-Apr-25 15:20 020 29 5.4 5.0
2017-Apr-25 14:50 020 28 5.4 5.0
2017-Apr-25 14:20 020 24 3.8 3.0 Light rain.
2017-Apr-25 13:50 360 33 5.4 4.0
2017-Apr-25 13:20 020 28 5.4 4.0
2017-Apr-25 12:50 030 31 5.4 4.0
2017-Apr-25 12:20 010 34 5.4 4.0
2017-Apr-25 11:50 020 31 4.9 3.0 Light rain.
2017-Apr-25 11:20 020 32 5.4 4.0
2017-Apr-25 10:50 010 36 5.4 3.0
2017-Apr-25 10:20 020 32 5.4 4.0
2017-Apr-25 09:50 020 31 5.4 4.0
2017-Apr-25 09:20 360 28 5.4 4.0 Light rain showers.
2017-Apr-25 08:50 020 27 5.4 4.0
2017-Apr-25 08:20 020 33 gusting 47 5.4 5.0
2017-Apr-25 07:50 010 34 5.4 4.0
2017-Apr-25 07:20 010 29 5.4 4.0